Home > Weather > Uppsala > Past weeks

Flag for Sweden Weather for the Past 2 Weeks in Uppsala, Sweden

Now
28 °F

Passing clouds.


Feels Like: 22 °F
Forecast: 23 / 30 °F
Wind: 6 mph from Southwest

Location: Stockholm / Arlanda

Current Time: Feb 12, 2016 at 10:34:55 PM

Latest Report: Feb 12, 2016 at 9:50 PM


Visibility: N/A

Pressure: 29.39 "Hg

Humidity: 93%

Dew point: 27 °F

Location of UppsalaLocation

Historic Weather in Uppsala — Graph

°F

Uppsala Temperature Yesterday

Maximum temperature yesterday: 34 °F (at 12:20 AM)
Minimum temperature yesterday: 30 °F (at 10:50 PM)
Average temperature yesterday: 33 °F

High & Low Weather Summary for the Past Weeks

 TemperatureHumidityPressure
High46 °F (Jan 29, 8:50 PM)100% (Jan 31, 7:50 PM)29.89 "Hg (Jan 31, 7:50 PM)
Low21 °F (Feb 6, 12:20 AM)60% (Feb 5, 12:50 PM)28.82 "Hg (Feb 2, 2:20 AM)
Average35 °F87%29.28 "Hg
* Reported Jan 28 9:20 PM — Feb 12 9:20 PM, Uppsala, Weather by CustomWeather, © 2016

Note: Actual official high and low records may vary slightly from our data, if they occured in-between our weather recording intervals... More about our weather records

Advertising

Uppsala Weather History for the Previous 24 Hours

 ConditionsComfort  
Time TempWeatherWind HumidityBarometerVisibility
9:20 PM
Fri, Feb 12
28 °FLight snow. Partly cloudy.7 mph93%29.39 "Hg6 mi
8:50 PM27 °FLight snow. Partly cloudy.6 mph100%29.36 "Hg6 mi
8:20 PM27 °FLight snow. Partly cloudy.5 mph100%29.36 "HgN/A
7:50 PM28 °FLight snow. Passing clouds.6 mph93%29.36 "Hg4 mi
7:20 PM28 °FLight snow. Partly cloudy.6 mph93%29.36 "HgN/A
6:50 PM28 °FLight snow. Partly cloudy.3 mph93%29.36 "HgN/A
6:20 PM28 °FLight snow. Partly cloudy.7 mph93%29.36 "Hg2 mi
5:50 PM28 °FLight snow. Overcast.6 mph93%29.36 "Hg2 mi
5:20 PM28 °FLight snow. Partly cloudy.8 mph93%29.36 "Hg3 mi
4:50 PM28 °FLight snow. Mostly cloudy.9 mph93%29.36 "Hg2 mi
4:20 PM28 °FSnow flurries. Overcast.8 mph93%29.36 "Hg5 mi
3:50 PM30 °FBroken clouds.8 mph86%29.36 "HgN/A
3:20 PM30 °FBroken clouds.8 mph86%29.33 "HgN/A
2:50 PM30 °FPartly sunny.10 mph86%29.33 "HgN/A
2:20 PM30 °FPartly sunny.10 mph86%29.33 "HgN/A
1:50 PM30 °FPartly sunny.9 mph86%29.33 "HgN/A
1:20 PM30 °FLight snow. Partly sunny.12 mph86%29.33 "HgN/A
12:50 PM28 °FLight snow. Ice fog.12 mph93%29.33 "Hg3 mi
12:20 PM28 °FLight snow. Ice fog.12 mph100%29.33 "Hg1 mi
11:50 AM28 °FLight snow. Ice fog.12 mph93%29.33 "Hg1 mi
11:20 AM28 °FLight snow. Ice fog.13 mph93%29.33 "Hg1 mi
10:50 AM28 °FLight snow. Ice fog.12 mph93%29.33 "Hg1 mi
10:20 AM28 °FLight snow. Ice fog.12 mph93%29.33 "Hg2 mi
9:50 AM28 °FLight snow. Ice fog.12 mph93%29.33 "Hg1 mi
9:20 AM28 °FLight snow. Ice fog.12 mph93%29.33 "Hg1 mi
8:50 AM28 °FLight snow. Ice fog.13 mph93%29.33 "Hg1 mi
8:20 AM28 °FLight snow. Ice fog.13 mph93%29.33 "Hg1 mi
7:50 AM28 °FLight snow. Ice fog.13 mph93%29.33 "Hg1 mi
7:20 AM28 °FSnow. Ice fog.13 mph93%29.33 "Hg1 mi
6:50 AM28 °FLight snow. Ice fog.13 mph93%29.33 "Hg1 mi
6:20 AM28 °FSnow. Ice fog.14 mph93%29.33 "Hg1 mi
5:50 AM28 °FSnow. Ice fog.13 mph93%29.33 "Hg1 mi
5:20 AM28 °FLight snow. Passing clouds.14 mph93%29.33 "Hg2 mi
4:50 AM28 °FLight snow. Passing clouds.13 mph86%29.33 "HgN/A
4:20 AM28 °FLight snow. Passing clouds.14 mph86%29.36 "HgN/A
3:50 AM30 °FSnow flurries. Partly cloudy.13 mph80%29.36 "HgN/A
3:20 AM30 °FSnow flurries. Partly cloudy.13 mph80%29.36 "HgN/A
2:50 AM30 °FLight snow. Passing clouds.15 mph86%29.36 "HgN/A
2:20 AM30 °FPassing clouds.13 mph86%29.36 "HgN/A
1:50 AM30 °FPassing clouds.13 mph86%29.36 "HgN/A
1:20 AM30 °FPassing clouds.12 mph86%29.39 "HgN/A
12:50 AM30 °FPassing clouds.10 mph86%29.39 "HgN/A
12:20 AM30 °FPassing clouds.12 mph86%29.39 "HgN/A
11:50 PM
Thu, Feb 11
30 °FPassing clouds.12 mph86%29.39 "HgN/A
10:50 PM30 °FPassing clouds.12 mph86%29.39 "HgN/A
10:20 PM32 °FPassing clouds.12 mph80%29.39 "HgN/A
Weather by CustomWeather, © 2016

See weather overviewHow to use our weather pages